Date,TemperatureHighF,TemperatureAvgF,TemperatureLowF,DewpointHighF,DewpointAvgF,DewpointLowF,HumidityHigh,HumidityAvg,HumidityLow,PressureMaxIn,PressureMinIn,WindSpeedMaxMPH,WindSpeedAvgMPH,GustSpeedMaxMPH,PrecipitationSumIn
2013-2-1,44,27,13,20,14,7,80,60,36,30.64,30.36,5,1,11,0.00
2013-2-2,52,40,28,34,27,19,75,62,46,30.43,30.34,6,1,12,0.00
2013-2-3,53,44,34,31,28,24,76,53,35,30.44,30.09,7,2,21,0.00
2013-2-4,61,50,38,47,37,28,81,62,41,30.09,29.95,16,5,25,0.05
2013-2-5,64,47,34,49,36,30,88,68,35,30.19,30.04,6,1,15,0.00
2013-2-6,65,52,42,44,38,33,77,60,44,30.22,30.05,11,5,19,0.00
2013-2-7,56,51,43,52,48,39,90,87,77,30.23,29.98,9,5,21,0.10
2013-2-8,52,42,34,39,33,30,87,74,49,30.43,30.23,8,2,16,0.00
2013-2-9,48,41,35,44,35,31,89,78,57,30.35,29.92,15,7,27,0.12
2013-2-10,59,52,40,51,38,28,89,63,35,30.17,29.75,14,8,23,0.08
2013-2-11,50,39,29,30,27,24,83,64,39,30.35,30.17,5,1,14,0.00
2013-2-12,46,38,33,35,30,26,90,74,54,30.30,30.06,7,1,13,0.07
2013-2-13,51,39,34,38,33,31,92,80,52,30.17,30.08,8,2,14,0.13
2013-2-14,55,43,31,37,32,26,83,66,47,30.32,30.10,6,2,15,0.00
2013-2-15,44,34,23,32,22,15,82,64,39,30.50,30.32,9,3,19,0.00
2013-2-16,31,29,24,26,23,18,86,79,67,30.47,30.44,7,2,22,0.00
2013-2-17,64,48,31,36,28,16,63,46,32,30.28,29.93,14,7,22,0.00
2013-2-18,59,50,34,54,40,26,86,67,44,30.26,29.71,21,12,31,0.07
2013-2-19,44,34,22,26,22,17,88,64,43,30.49,30.26,8,2,17,0.00
2013-2-20,37,32,29,31,23,14,88,69,50,30.47,30.22,7,2,16,0.09
2013-2-21,37,34,30,34,31,26,91,88,82,30.22,29.83,11,3,18,0.02
2013-2-22,36,28,22,32,22,18,88,77,58,30.31,30.02,10,3,21,0.00
2013-2-23,45,31,20,27,22,17,90,72,45,30.29,30.13,5,0,9,0.00
2013-2-24,59,44,30,39,31,24,79,62,41,30.15,29.95,10,3,18,0.00
2013-2-25,42,39,35,37,34,30,92,82,65,30.01,29.58,12,5,24,0.60
2013-2-26,36,34,33,33,31,31,92,90,86,30.06,29.55,11,3,19,0.20
2013-2-27,40,35,32,33,30,27,89,82,72,30.25,30.03,11,3,22,0.05
2013-2-28,36,33,30,29,28,26,92,81,75,30.37,30.24,8,3,14,0.00